QPF
0.00 0.00 0.00 0.00 0.00 0.00 0.00 0.00 0.00 0.00 0.00 0.00 0.00 0.00 0.00 0.00 0.00 0.00 0.00 0.00 0.00 0.00 0.00 0.00 0.00 0.00 0.00 0.00 0.00 0.00 0.00 0.00 0.00 0.00 0.00 0.00 0.00 0.00 0.00 0.00 0.00 0.00 0.00 0.00 0.00
0.00 0.00 0.00 0.00 0.00 0.00 0.00 0.00 0.00 0.00 0.00 0.00 0.00 0.00 0.00 0.00 0.00 0.00 0.00 0.00 0.00 0.00 0.00 0.00 0.00 0.00 0.00 0.00 0.00 0.00 0.00 0.00 0.00 0.00 0.00 0.00 0.00 0.00 0.00 0.01 0.00 0.00 0.00 0.00 0.00
0.00 0.00 0.00 0.00 0.00 0.00 0.00 0.00 0.00 0.00 0.00 0.00 0.00 0.00 0.00 0.00 0.00 0.00 0.00 0.00 0.00 0.00 0.00 0.00 0.00 0.00 0.00 0.00 0.00 0.00 0.00 0.00 0.00 0.00 0.00 0.00 0.00 0.00 0.00 0.00 0.00 0.00 0.00 0.00 0.00
0.00 0.00 0.00 0.00 0.00 0.00 0.00 0.00 0.00 0.00 0.00 0.00 0.00 0.00 0.00 0.00 0.00 0.00 0.00 0.00 0.00 0.00 0.00 0.00 0.00 0.00 0.00 0.00 0.00 0.00 0.00 0.00 0.00 0.00 0.00 0.00 0.00 0.00 0.00 0.00 0.00 0.00 0.00 0.00 0.00
0.00 0.00 0.00 0.00 0.00 0.00 0.00 0.00 0.00 0.00 0.00 0.00 0.00 0.00 0.00 0.00 0.00 0.00 0.00 0.00 0.00 0.00 0.00 0.00 0.00 0.00 0.00 0.00 0.00 0.00 0.00 0.00 0.00 0.00 0.00 0.00 0.00 0.00 0.00 0.00 0.00 0.00 0.00 0.01 0.00
0.00 0.00 0.00 0.00 0.00 0.00 0.00 0.00 0.00 0.00 0.00 0.00 0.00 0.00 0.00 0.00 0.00 0.00 0.00 0.00 0.00 0.00 0.00 0.00 0.00 0.00 0.00 0.00 0.00 0.00 0.00 0.00 0.00 0.00 0.00 0.00 0.00 0.00 0.00 0.00 0.00 0.00 0.02 0.02 0.02
0.00 0.00 0.00 0.00 0.00 0.00 0.00 0.00 0.00 0.00 0.00 0.00 0.00 0.00 0.00 0.00 0.00 0.00 0.00 0.00 0.00 0.00 0.00 0.00 0.00 0.00 0.00 0.00 0.00 0.00 0.00 0.00 0.00 0.00 0.00 0.00 0.00 0.00 0.00 0.01 0.02 0.05 0.07 0.07 0.07
0.00 0.00 0.00 0.00 0.00 0.00 0.00 0.00 0.00 0.00 0.00 0.00 0.00 0.00 0.00 0.00 0.00 0.00 0.00 0.00 0.00 0.00 0.00 0.00 0.00 0.00 0.00 0.00 0.00 0.00 0.00 0.00 0.00 0.00 0.00 0.00 0.00 0.00 0.00 0.00 0.02 0.05 0.09 0.10 0.07
0.00 0.00 0.00 0.00 0.00 0.00 0.00 0.00 0.00 0.00 0.00 0.00 0.00 0.00 0.00 0.00 0.00 0.00 0.00 0.00 0.00 0.00 0.00 0.00 0.00 0.00 0.00 0.00 0.00 0.00 0.00 0.00 0.00 0.00 0.00 0.00 0.00 0.00 0.00 0.00 0.00 0.00 0.02 0.08 0.12
0.00 0.00 0.00 0.00 0.00 0.00 0.00 0.00 0.00 0.00 0.00 0.00 0.00 0.00 0.00 0.00 0.00 0.00 0.00 0.00 0.00 0.00 0.00 0.00 0.00 0.00 0.00 0.00 0.00 0.00 0.00 0.00 0.00 0.00 0.00 0.00 0.00 0.00 0.00 0.00 0.00 0.00 0.00 0.01 0.04
0.00 0.00 0.00 0.00 0.00 0.00 0.00 0.00 0.00 0.00 0.00 0.00 0.00 0.00 0.00 0.00 0.00 0.00 0.00 0.00 0.00 0.00 0.00 0.00 0.00 0.00 0.00 0.00 0.00 0.00 0.00 0.00 0.00 0.00 0.00 0.00 0.00 0.00 0.00 0.00 0.00 0.00 0.00 0.00 0.01
0.00 0.00 0.00 0.00 0.00 0.00 0.00 0.00 0.00 0.00 0.00 0.00 0.00 0.00 0.00 0.00 0.00 0.00 0.00 0.00 0.00 0.00 0.00 0.00 0.00 0.00 0.00 0.00 0.00 0.00 0.00 0.00 0.00 0.00 0.00 0.00 0.00 0.00 0.00 0.00 0.00 0.00 0.00 0.00 0.00
0.00 0.00 0.00 0.00 0.00 0.00 0.00 0.00 0.00 0.00 0.00 0.00 0.00 0.00 0.00 0.00 0.00 0.00 0.00 0.00 0.00 0.00 0.00 0.00 0.00 0.00 0.00 0.00 0.00 0.00 0.00 0.00 0.00 0.00 0.00 0.00 0.00 0.00 0.00 0.00 0.00 0.00 0.00 0.00 0.00
0.00 0.00 0.00 0.00 0.00 0.00 0.00 0.00 0.00 0.00 0.00 0.00 0.00 0.00 0.00 0.00 0.00 0.00 0.00 0.00 0.00 0.00 0.00 0.00 0.00 0.00 0.00 0.00 0.00 0.00 0.00 0.00 0.00 0.00 0.00 0.00 0.00 0.00 0.00 0.00 0.00 0.00 0.00 0.00 0.00
0.00 0.00 0.00 0.00 0.00 0.00 0.00 0.00 0.00 0.00 0.00 0.00 0.00 0.00 0.00 0.00 0.00 0.00 0.00 0.00 0.00 0.00 0.00 0.00 0.00 0.00 0.00 0.00 0.00 0.00 0.00 0.00 0.00 0.00 0.00 0.00 0.00 0.00 0.00 0.00 0.00 0.00 0.00 0.00 0.00
0.00 0.00 0.00 0.00 0.00 0.00 0.00 0.00 0.00 0.00 0.00 0.00 0.00 0.00 0.00 0.00 0.00 0.00 0.00 0.00 0.00 0.00 0.00 0.00 0.00 0.00 0.00 0.00 0.00 0.00 0.00 0.00 0.00 0.00 0.00 0.00 0.00 0.00 0.00 0.01 0.00 0.00 0.00 0.00 0.00
0.00 0.00 0.00 0.00 0.00 0.00 0.00 0.00 0.00 0.00 0.00 0.00 0.00 0.00 0.00 0.00 0.00 0.00 0.00 0.00 0.00 0.00 0.00 0.00 0.00 0.00 0.00 0.00 0.00 0.00 0.00 0.00 0.00 0.00 0.00 0.00 0.00 0.00 0.00 0.00 0.00 0.00 0.00 0.00 0.00
0.00 0.00 0.00 0.00 0.00 0.00 0.00 0.00 0.00 0.00 0.00 0.00 0.00 0.00 0.00 0.00 0.00 0.00 0.00 0.00 0.00 0.00 0.00 0.00 0.00 0.00 0.00 0.00 0.00 0.00 0.00 0.00 0.00 0.00 0.00 0.00 0.00 0.00 0.00 0.00 0.00 0.00 0.00 0.00 0.00
0.00 0.00 0.00 0.00 0.00 0.00 0.00 0.00 0.00 0.00 0.00 0.00 0.00 0.00 0.00 0.00 0.00 0.00 0.00 0.00 0.00 0.00 0.00 0.00 0.00 0.00 0.00 0.00 0.00 0.00 0.00 0.00 0.00 0.00 0.00 0.00 0.00 0.00 0.00 0.00 0.00 0.00 0.00 0.00 0.00
0.00 0.00 0.00 0.00 0.00 0.00 0.00 0.00 0.00 0.00 0.00 0.00 0.00 0.00 0.00 0.00 0.00 0.00 0.00 0.00 0.00 0.00 0.00 0.00 0.00 0.00 0.00 0.00 0.00 0.00 0.00 0.00 0.00 0.00 0.00 0.00 0.00 0.00 0.00 0.00 0.00 0.00 0.00 0.00 0.00
0.00 0.00 0.00 0.00 0.00 0.00 0.00 0.00 0.00 0.00 0.00 0.00 0.00 0.00 0.00 0.00 0.00 0.00 0.00 0.00 0.00 0.00 0.00 0.00 0.00 0.00 0.00 0.00 0.00 0.00 0.00 0.00 0.00 0.00 0.00 0.00 0.00 0.00 0.00 0.00 0.00 0.00 0.00 0.00 0.00
0.00 0.00 0.00 0.00 0.00 0.00 0.00 0.00 0.00 0.00 0.00 0.00 0.00 0.00 0.00 0.00 0.00 0.00 0.00 0.00 0.00 0.00 0.00 0.00 0.00 0.00 0.00 0.00 0.00 0.00 0.00 0.00 0.00 0.00 0.00 0.00 0.00 0.00 0.00 0.00 0.00 0.00 0.00 0.00 0.00
0.00 0.00 0.00 0.00 0.00 0.00 0.00 0.00 0.00 0.00 0.00 0.00 0.00 0.00 0.00 0.00 0.00 0.00 0.00 0.00 0.00 0.00 0.00 0.00 0.00 0.00 0.00 0.00 0.00 0.00 0.00 0.00 0.00 0.00 0.00 0.00 0.00 0.00 0.00 0.00 0.00 0.00 0.00 0.00 0.00
0.00 0.00 0.00 0.00 0.00 0.00 0.00 0.00 0.00 0.00 0.00 0.00 0.00 0.00 0.00 0.00 0.00 0.00 0.00 0.00 0.00 0.00 0.00 0.00 0.00 0.00 0.00 0.00 0.00 0.00 0.00 0.00 0.00 0.00 0.00 0.00 0.00 0.00 0.00 0.00 0.00 0.00 0.00 0.00 0.00
0.00 0.00 0.00 0.00 0.00 0.00 0.00 0.00 0.00 0.00 0.00 0.00 0.00 0.00 0.00 0.00 0.00 0.00 0.00 0.00 0.00 0.00 0.00 0.00 0.00 0.00 0.00 0.00 0.00 0.00 0.00 0.00 0.00 0.00 0.00 0.00 0.00 0.00 0.00 0.00 0.00 0.00 0.00 0.00 0.00
0.00 0.00 0.00 0.00 0.00 0.00 0.00 0.00 0.00 0.00 0.00 0.00 0.00 0.00 0.00 0.00 0.00 0.00 0.00 0.00 0.00 0.00 0.00 0.00 0.00 0.00 0.00 0.00 0.00 0.00 0.00 0.00 0.00 0.00 0.00 0.00 0.00 0.00 0.00 0.00 0.00 0.00 0.00 0.00 0.00
0.00 0.00 0.00 0.00 0.00 0.00 0.00 0.00 0.00 0.00 0.00 0.00 0.00 0.00 0.00 0.00 0.00 0.00 0.00 0.00 0.00 0.00 0.00 0.00 0.00 0.00 0.00 0.00 0.00 0.00 0.00 0.00 0.00 0.00 0.00 0.00 0.00 0.00 0.00 0.00 0.00 0.00 0.00 0.00 0.00
MSLP
1018.97 1018.82 1018.88 1019.02 1019.07 1019.01 1018.71 1018.46 1018.26 1018.07 1017.90 1017.59 1017.15 1016.71 1016.41 1015.92 1015.38 1014.75 1015.34 1016.13 1015.33 1014.44 1014.37 1013.98 1013.65 1014.09 1014.23 1014.69 1014.71 1015.19 1016.60 1017.25 1016.26 1015.59 1014.44 1013.18 1012.82 1011.58 1011.27 1011.18 1011.31 1011.59 1011.68 1012.08 1013.30
1019.07 1018.92 1018.94 1019.02 1019.07 1018.87 1018.59 1018.36 1018.27 1018.19 1017.81 1017.41 1017.08 1016.82 1016.51 1016.23 1015.83 1015.46 1015.85 1015.41 1014.75 1014.33 1014.36 1014.42 1014.63 1014.79 1015.13 1015.23 1015.42 1015.87 1017.14 1016.93 1016.19 1015.51 1014.83 1013.81 1013.30 1012.55 1011.85 1011.72 1012.05 1012.31 1012.52 1012.81 1013.50
1019.07 1019.07 1019.08 1019.10 1019.04 1018.60 1018.44 1018.30 1018.19 1018.01 1017.78 1017.42 1017.04 1016.76 1016.56 1016.37 1016.16 1016.18 1015.59 1015.15 1014.84 1014.53 1014.61 1014.62 1014.85 1015.26 1015.59 1015.68 1016.11 1016.41 1016.82 1016.84 1016.29 1015.63 1015.18 1014.23 1013.43 1012.89 1012.35 1011.93 1011.97 1012.26 1013.08 1013.46 1013.75
1019.20 1019.14 1019.08 1019.19 1018.96 1018.58 1018.47 1018.23 1018.06 1017.75 1017.45 1017.23 1016.97 1016.83 1016.52 1016.31 1017.17 1016.34 1015.69 1015.19 1014.81 1014.53 1014.43 1014.63 1014.97 1015.66 1016.24 1016.53 1016.64 1016.62 1016.85 1016.92 1016.55 1015.98 1015.59 1014.93 1014.28 1013.67 1013.40 1012.76 1012.10 1012.40 1013.31 1013.53 1013.87
1019.39 1019.36 1019.31 1019.06 1018.74 1018.40 1018.22 1017.99 1017.73 1017.63 1017.49 1017.32 1017.06 1016.96 1016.70 1017.04 1017.33 1016.49 1015.91 1015.32 1014.86 1014.55 1014.89 1015.11 1015.55 1016.10 1016.63 1016.87 1016.84 1017.00 1017.28 1017.05 1016.95 1016.65 1016.47 1015.33 1015.01 1014.70 1015.63 1014.45 1013.12 1013.10 1013.89 1014.40 1014.34
1019.52 1019.31 1019.09 1018.87 1018.55 1018.20 1018.00 1017.87 1017.78 1017.65 1017.48 1017.40 1017.13 1017.08 1017.05 1017.52 1017.10 1016.72 1016.24 1015.49 1015.41 1015.20 1015.29 1015.31 1015.96 1016.25 1016.71 1017.23 1017.38 1017.57 1017.63 1017.91 1017.79 1017.65 1017.30 1017.11 1015.93 1015.45 1016.66 1015.71 1014.69 1014.22 1014.45 1014.90 1015.15
1019.34 1019.12 1018.96 1018.76 1018.45 1018.17 1017.95 1017.91 1017.77 1017.55 1017.66 1017.36 1017.01 1017.16 1017.45 1017.76 1017.26 1016.78 1016.18 1015.86 1015.81 1015.53 1015.56 1015.72 1016.19 1016.62 1017.27 1017.83 1018.04 1018.01 1018.32 1018.49 1018.85 1018.76 1018.44 1017.98 1017.90 1019.23 1018.78 1017.06 1016.52 1016.43 1015.72 1015.54 1015.47
1019.31 1019.13 1018.98 1018.70 1018.40 1018.14 1017.97 1017.89 1017.55 1017.60 1017.48 1017.16 1017.09 1017.25 1017.78 1017.02 1016.96 1016.73 1016.54 1016.07 1015.74 1015.74 1016.02 1016.19 1016.39 1017.30 1018.29 1018.83 1019.25 1019.87 1019.94 1020.37 1020.33 1019.78 1019.43 1018.51 1019.92 1020.31 1019.86 1019.01 1018.96 1018.63 1017.91 1017.18 1015.82
1019.34 1019.13 1018.88 1018.74 1018.45 1018.13 1017.96 1017.72 1017.59 1017.48 1017.24 1017.07 1017.17 1017.36 1018.10 1017.20 1017.23 1017.28 1017.24 1017.26 1016.69 1016.61 1016.83 1016.73 1017.37 1019.51 1019.52 1020.29 1021.20 1021.72 1022.12 1021.98 1021.34 1021.27 1021.21 1020.61 1021.45 1022.06 1021.64 1021.05 1021.12 1021.03 1020.28 1019.35 1018.01
1019.37 1019.26 1019.04 1018.75 1018.42 1018.12 1017.74 1017.50 1017.27 1017.14 1017.20 1017.25 1017.71 1018.21 1018.57 1018.66 1018.26 1018.04 1017.41 1017.47 1017.70 1017.65 1017.85 1018.65 1020.04 1021.29 1021.79 1021.63 1022.84 1023.10 1023.16 1023.07 1022.76 1022.45 1022.24 1022.47 1023.09 1023.25 1023.29 1022.71 1023.27 1023.08 1022.47 1021.64 1020.79
1019.47 1019.28 1018.91 1018.68 1018.43 1017.97 1017.53 1017.51 1018.51 1018.54 1018.71 1019.19 1019.29 1019.10 1019.02 1018.81 1018.69 1018.63 1018.30 1018.17 1018.53 1019.40 1020.75 1021.23 1022.14 1023.14 1023.35 1023.13 1023.33 1023.58 1023.79 1023.87 1023.46 1023.15 1023.27 1023.87 1024.23 1024.53 1024.50 1023.80 1024.35 1024.28 1023.95 1023.31 1022.44
1019.44 1019.28 1018.92 1018.70 1018.38 1018.04 1018.22 1019.49 1020.38 1020.52 1020.01 1019.40 1019.26 1019.23 1019.14 1019.27 1019.55 1019.61 1019.09 1019.75 1020.77 1021.76 1021.91 1022.61 1023.35 1023.60 1023.44 1023.59 1023.99 1024.26 1024.46 1024.62 1024.27 1023.86 1024.07 1024.58 1025.20 1025.31 1025.24 1025.62 1025.83 1025.82 1025.23 1024.60 1023.43
1019.65 1019.31 1018.98 1018.66 1018.48 1018.70 1019.66 1020.54 1020.53 1020.26 1020.47 1019.92 1019.44 1019.35 1019.44 1019.74 1020.98 1021.10 1020.89 1021.22 1021.99 1022.73 1023.32 1023.81 1024.47 1024.00 1023.99 1024.41 1024.70 1025.01 1025.08 1025.18 1025.27 1024.78 1024.74 1024.99 1025.72 1025.87 1026.08 1026.13 1026.04 1026.22 1026.27 1025.77 1025.21
1019.78 1019.36 1018.97 1018.52 1019.10 1020.24 1020.51 1020.59 1020.42 1020.28 1020.90 1020.61 1019.70 1019.33 1019.58 1020.19 1021.57 1021.86 1021.85 1022.27 1022.80 1023.68 1023.96 1024.85 1024.93 1024.78 1024.94 1025.16 1025.39 1025.47 1025.51 1025.53 1025.60 1025.78 1025.93 1025.67 1026.47 1026.63 1026.74 1026.74 1026.77 1026.84 1026.59 1026.41 1025.83
1019.98 1019.57 1019.17 1018.62 1020.16 1020.81 1020.98 1020.49 1020.27 1020.53 1021.59 1021.04 1019.97 1019.44 1020.44 1021.48 1022.48 1022.72 1022.63 1022.72 1023.93 1024.49 1024.58 1026.16 1025.97 1025.94 1025.94 1026.27 1025.94 1026.14 1025.93 1026.00 1026.08 1026.38 1026.56 1026.51 1027.32 1027.61 1027.52 1027.54 1027.66 1027.71 1027.53 1027.26 1026.86
1020.08 1019.72 1019.58 1019.94 1020.67 1020.97 1020.75 1020.48 1020.78 1021.98 1022.41 1021.48 1020.62 1020.56 1021.68 1022.76 1023.55 1023.81 1023.77 1023.68 1024.62 1025.23 1025.79 1026.69 1026.40 1026.81 1026.88 1026.59 1026.74 1026.60 1026.52 1026.63 1026.87 1027.16 1027.43 1027.20 1027.65 1028.95 1029.03 1029.31 1029.10 1028.78 1028.45 1027.95 1027.41
1020.20 1019.98 1020.03 1020.69 1021.38 1020.96 1020.80 1021.35 1022.84 1023.46 1023.39 1022.93 1022.13 1022.09 1022.87 1024.01 1024.69 1025.21 1025.64 1025.82 1026.46 1026.74 1027.44 1027.36 1027.58 1027.58 1027.60 1027.47 1027.33 1027.55 1027.75 1027.94 1028.18 1028.16 1027.99 1027.86 1028.50 1029.62 1030.08 1030.24 1030.37 1029.79 1029.13 1028.63 1028.12
1020.51 1020.35 1020.95 1021.27 1021.31 1021.06 1021.56 1022.94 1024.43 1024.85 1024.30 1023.57 1023.26 1023.30 1024.14 1024.83 1025.65 1026.25 1026.65 1027.22 1027.36 1027.78 1028.37 1028.56 1028.48 1028.87 1028.99 1029.41 1029.55 1029.09 1029.06 1029.20 1029.10 1029.01 1028.73 1028.27 1029.15 1030.13 1030.76 1030.83 1030.78 1030.48 1030.05 1029.32 1028.67
1020.72 1021.30 1021.57 1021.69 1021.42 1021.46 1022.62 1024.90 1025.84 1025.39 1024.82 1024.36 1024.10 1024.60 1025.33 1025.54 1026.08 1026.86 1027.55 1028.07 1028.23 1028.25 1028.84 1029.16 1029.67 1029.79 1029.94 1030.17 1030.45 1030.06 1029.91 1029.80 1029.59 1029.42 1029.64 1029.28 1030.19 1030.91 1030.76 1031.01 1030.87 1030.52 1030.15 1029.62 1029.13
1021.67 1022.25 1022.37 1021.98 1021.75 1022.41 1024.13 1025.81 1025.79 1025.13 1024.64 1024.48 1025.02 1025.51 1026.25 1026.65 1026.96 1027.43 1028.03 1028.35 1028.40 1028.55 1028.78 1029.42 1030.13 1030.61 1030.73 1030.84 1031.12 1031.24 1031.04 1030.26 1030.12 1030.07 1029.91 1030.19 1031.20 1031.51 1031.54 1031.35 1030.89 1030.42 1030.14 1029.77 1029.19
1022.21 1023.07 1022.44 1022.13 1022.14 1023.53 1025.92 1025.86 1025.37 1024.80 1024.56 1024.94 1025.51 1026.13 1026.81 1027.26 1027.73 1028.12 1028.52 1028.53 1028.52 1028.66 1028.85 1029.53 1030.45 1031.46 1031.49 1032.64 1032.97 1032.23 1031.73 1031.22 1030.70 1030.17 1030.25 1030.93 1032.14 1032.36 1032.31 1031.89 1031.27 1030.69 1030.22 1029.86 1029.33
1023.01 1023.69 1022.73 1022.25 1024.02 1025.72 1026.23 1025.64 1025.13 1025.07 1024.80 1025.27 1025.78 1026.49 1027.19 1027.69 1028.24 1028.40 1028.64 1028.66 1028.59 1028.81 1029.32 1030.02 1031.09 1032.31 1033.09 1033.15 1033.10 1033.12 1032.83 1032.12 1031.16 1030.80 1031.04 1031.45 1032.29 1032.31 1032.24 1031.77 1031.25 1030.77 1030.20 1029.97 1029.55
1024.29 1024.29 1023.15 1022.99 1025.61 1026.73 1026.16 1025.84 1025.44 1025.31 1025.38 1025.58 1026.32 1026.82 1027.36 1028.01 1028.53 1028.61 1028.71 1028.82 1028.82 1029.26 1029.74 1030.38 1031.74 1033.08 1033.62 1033.97 1033.73 1033.71 1033.13 1032.41 1031.55 1031.55 1031.83 1032.15 1032.39 1032.18 1032.13 1031.63 1031.06 1030.76 1030.16 1029.62 1029.01
1024.78 1025.50 1025.19 1025.57 1026.78 1026.69 1026.53 1026.29 1025.86 1025.58 1025.74 1025.99 1026.69 1027.04 1027.63 1028.25 1028.43 1028.76 1028.92 1029.01 1029.08 1029.53 1030.04 1030.79 1032.92 1034.03 1034.71 1035.05 1035.06 1034.57 1033.73 1032.85 1032.04 1032.39 1032.60 1032.89 1032.54 1032.09 1031.80 1031.46 1030.58 1030.11 1029.64 1029.01 1028.75
1025.46 1026.80 1026.87 1027.77 1027.40 1026.99 1026.63 1026.46 1026.24 1026.06 1026.03 1026.22 1026.78 1027.18 1027.73 1028.33 1028.58 1028.84 1029.03 1029.25 1029.59 1030.08 1030.77 1031.93 1034.07 1034.99 1035.31 1035.00 1034.82 1034.46 1034.09 1033.73 1033.48 1033.54 1033.54 1033.37 1032.85 1032.35 1031.90 1031.48 1030.70 1030.16 1029.84 1029.81 1029.41
1025.50 1026.43 1027.18 1027.67 1027.42 1027.19 1027.01 1026.72 1026.47 1026.51 1026.60 1026.72 1027.00 1027.42 1027.69 1028.10 1028.46 1028.92 1029.17 1029.58 1030.11 1030.76 1031.57 1032.65 1034.41 1035.36 1035.84 1035.07 1034.89 1034.39 1034.15 1034.10 1034.08 1034.14 1034.11 1033.48 1032.99 1032.34 1031.66 1031.24 1030.94 1030.39 1029.89 1029.26 1028.78
1025.41 1025.66 1026.17 1028.31 1027.92 1027.64 1027.34 1026.77 1026.62 1026.59 1026.86 1026.98 1027.24 1027.67 1027.86 1028.04 1028.30 1028.67 1029.09 1029.62 1030.07 1030.87 1031.95 1033.03 1034.39 1035.66 1035.74 1035.10 1034.91 1034.38 1034.17 1034.61 1034.56 1034.60 1034.64 1033.95 1033.17 1032.41 1031.95 1031.41 1031.17 1030.78 1030.63 1030.32 1029.85
Thickness
5610 5613 5613 5612 5613 5615 5620 5624 5627 5631 5635 5639 5644 5649 5652 5657 5661 5665 5657 5655 5666 5674 5677 5682 5685 5679 5681 5678 5681 5675 5646 5639 5659 5658 5671 5690 5688 5709 5716 5715 5718 5721 5726 5729 5724
5610 5612 5613 5612 5614 5617 5622 5626 5628 5631 5635 5640 5644 5647 5650 5653 5656 5655 5656 5661 5669 5674 5675 5674 5671 5668 5663 5669 5668 5660 5636 5645 5658 5667 5671 5679 5686 5694 5704 5705 5705 5708 5715 5717 5717
5611 5611 5613 5613 5615 5620 5624 5627 5629 5632 5635 5639 5643 5646 5648 5650 5650 5647 5656 5662 5665 5670 5670 5671 5669 5663 5658 5659 5656 5655 5646 5653 5662 5668 5668 5675 5683 5694 5697 5699 5706 5704 5703 5706 5708
5609 5611 5613 5614 5617 5621 5624 5627 5629 5632 5635 5638 5641 5642 5645 5647 5631 5643 5652 5657 5662 5666 5667 5665 5661 5652 5642 5643 5644 5649 5648 5650 5656 5660 5663 5667 5672 5679 5686 5694 5708 5706 5703 5703 5702
5607 5609 5611 5614 5618 5622 5624 5626 5628 5630 5632 5634 5636 5637 5640 5629 5627 5639 5647 5652 5656 5660 5655 5653 5648 5642 5634 5636 5639 5640 5641 5646 5645 5649 5650 5661 5666 5669 5651 5673 5695 5698 5694 5692 5695
5605 5609 5612 5615 5618 5622 5623 5625 5625 5626 5628 5629 5632 5632 5632 5616 5629 5633 5639 5645 5645 5648 5646 5646 5639 5638 5633 5629 5629 5632 5634 5632 5633 5634 5639 5637 5656 5660 5646 5661 5677 5683 5683 5682 5684
5605 5609 5611 5613 5617 5619 5621 5621 5622 5624 5622 5624 5628 5627 5619 5613 5624 5629 5633 5636 5636 5638 5637 5637 5633 5626 5624 5620 5619 5623 5623 5622 5614 5616 5623 5626 5634 5609 5625 5646 5656 5659 5667 5670 5674
5604 5607 5609 5612 5614 5617 5619 5619 5622 5619 5620 5623 5624 5620 5607 5620 5621 5622 5625 5627 5629 5629 5626 5625 5623 5613 5605 5602 5596 5590 5589 5587 5598 5603 5610 5624 5609 5606 5612 5622 5621 5627 5639 5652 5668
5603 5605 5608 5609 5612 5616 5616 5617 5617 5617 5619 5620 5616 5611 5598 5612 5608 5610 5611 5609 5614 5613 5610 5612 5605 5583 5583 5580 5564 5555 5560 5572 5579 5579 5582 5593 5582 5582 5589 5597 5596 5597 5608 5620 5637
5602 5603 5605 5608 5611 5612 5614 5616 5616 5616 5614 5612 5606 5595 5592 5589 5594 5596 5601 5600 5596 5597 5594 5583 5562 5552 5547 5548 5545 5553 5552 5552 5555 5562 5559 5556 5555 5560 5562 5570 5566 5571 5578 5589 5600
5600 5602 5605 5607 5608 5611 5615 5611 5598 5594 5594 5585 5582 5579 5582 5584 5584 5582 5585 5586 5580 5567 5553 5551 5537 5527 5536 5542 5543 5539 5536 5532 5540 5547 5543 5526 5530 5535 5542 5551 5545 5549 5555 5566 5577
5600 5602 5604 5605 5607 5609 5606 5591 5584 5582 5578 5583 5581 5577 5577 5573 5562 5564 5569 5561 5546 5532 5536 5521 5515 5525 5524 5522 5516 5512 5513 5505 5514 5526 5526 5508 5507 5511 5519 5524 5526 5527 5535 5544 5558
5598 5600 5602 5603 5603 5599 5589 5581 5579 5578 5562 5572 5573 5568 5565 5559 5541 5538 5542 5537 5526 5514 5506 5502 5506 5510 5506 5494 5496 5490 5491 5491 5492 5497 5499 5496 5492 5492 5500 5506 5514 5516 5519 5524 5532
5596 5598 5600 5601 5594 5583 5580 5577 5576 5573 5537 5553 5557 5555 5552 5542 5528 5523 5520 5519 5508 5501 5501 5484 5487 5489 5480 5480 5476 5477 5476 5478 5474 5470 5460 5482 5454 5466 5475 5480 5485 5492 5502 5506 5513
5592 5595 5596 5597 5583 5576 5575 5575 5572 5564 5490 5544 5543 5548 5532 5520 5509 5504 5503 5501 5485 5478 5489 5468 5465 5462 5464 5464 5469 5464 5464 5465 5461 5452 5456 5458 5438 5436 5454 5454 5454 5463 5476 5484 5492
5591 5592 5591 5587 5581 5576 5574 5571 5562 5515 5465 5530 5532 5523 5508 5496 5489 5484 5484 5486 5482 5474 5469 5459 5465 5455 5454 5457 5452 5452 5450 5443 5433 5429 5427 5443 5436 5416 5417 5423 5428 5433 5445 5458 5471
5589 5588 5587 5581 5573 5573 5570 5556 5513 5471 5517 5506 5508 5503 5490 5478 5473 5468 5462 5456 5448 5465 5442 5449 5445 5447 5443 5437 5437 5425 5417 5395 5402 5401 5420 5427 5411 5389 5397 5399 5398 5407 5415 5428 5446
5586 5586 5580 5575 5572 5569 5557 5529 5464 5496 5497 5497 5492 5486 5475 5474 5465 5458 5457 5442 5447 5440 5422 5422 5430 5422 5424 5414 5405 5399 5405 5389 5406 5398 5408 5418 5403 5377 5381 5381 5379 5383 5392 5404 5420
5584 5580 5575 5572 5568 5561 5533 5460 5461 5485 5486 5481 5482 5471 5462 5468 5464 5455 5447 5439 5440 5439 5430 5419 5419 5417 5410 5405 5389 5391 5394 5396 5400 5395 5388 5400 5380 5371 5372 5364 5365 5367 5377 5386 5399
5577 5570 5567 5568 5562 5545 5507 5485 5486 5485 5486 5482 5468 5468 5460 5453 5458 5450 5442 5436 5439 5436 5429 5427 5402 5404 5403 5392 5386 5378 5379 5394 5381 5371 5408 5383 5348 5326 5348 5350 5358 5357 5363 5374 5387
5573 5566 5567 5564 5554 5524 5472 5489 5492 5489 5488 5479 5472 5467 5459 5457 5448 5443 5436 5440 5439 5435 5432 5422 5405 5393 5393 5357 5339 5365 5372 5378 5383 5393 5370 5365 5316 5339 5338 5341 5343 5349 5358 5365 5378
5563 5551 5564 5560 5524 5485 5487 5497 5494 5483 5485 5478 5471 5464 5456 5450 5441 5442 5438 5437 5434 5432 5424 5415 5396 5365 5371 5377 5372 5368 5364 5364 5378 5383 5363 5356 5338 5342 5336 5336 5337 5342 5353 5361 5369
5557 5549 5560 5554 5493 5483 5502 5493 5489 5484 5477 5479 5470 5462 5453 5449 5442 5439 5438 5437 5432 5422 5421 5415 5396 5383 5387 5376 5365 5341 5363 5361 5363 5359 5349 5343 5335 5341 5331 5333 5338 5340 5353 5363 5374
5552 5530 5539 5527 5505 5505 5499 5489 5485 5483 5477 5475 5465 5461 5455 5448 5442 5442 5435 5436 5435 5427 5424 5409 5378 5355 5353 5330 5326 5331 5349 5354 5358 5343 5337 5330 5331 5333 5329 5327 5339 5349 5362 5371 5377
5541 5529 5529 5504 5512 5508 5497 5492 5485 5481 5482 5474 5471 5466 5456 5450 5448 5441 5439 5435 5430 5424 5410 5395 5361 5348 5346 5352 5357 5353 5345 5345 5336 5331 5322 5321 5328 5329 5326 5327 5337 5351 5360 5363 5366
5541 5536 5521 5514 5517 5513 5493 5492 5487 5482 5477 5475 5468 5463 5459 5450 5451 5443 5440 5433 5424 5416 5406 5394 5364 5352 5346 5370 5361 5361 5351 5347 5340 5331 5328 5332 5331 5335 5337 5337 5344 5357 5367 5374 5380
5545 5544 5537 5509 5512 5506 5498 5498 5490 5483 5477 5471 5464 5454 5456 5453 5450 5446 5439 5430 5431 5420 5402 5390 5375 5359 5345 5376 5373 5373 5347 5326 5323 5320 5316 5323 5330 5334 5337 5345 5350 5358 5362 5366 5371